Sioux Falls, SD

10:06 PM CDT on October 23, 2019 (GMT -0500)
Foss

Weather History for KFSD - August, 2019

Change the Weather History Date:

Tuesday, August 27, 2019

  Actual Average Record
Temperature  
Mean Temperature 66 °F 69 °F  
Max Temperature 73 °F 80 °F 101 °F (1973)
Min Temperature 57 °F 57 °F 35 °F (1896)
Degree Days  
Heating Degree Days 0 1  
Month to date heating degree days 0 14  
Since 1 June heating degree days 20 73  
Since 1 July heating degree days 0 22  
Cooling Degree Days 0 5  
Month to date cooling degree days 175 180  
Year to date cooling degree days 703 607  
Since 1 June cooling degree days 688 571  
Growing Degree Days 16 (Base 50)    
Moisture  
Dew Point 50 °F    
Average Humidity 63    
Maximum Humidity 84    
Minimum Humidity 35    
Precipitation  
Precipitation 0.00 in 0.10 in 2.60 in (2015)
Month to date precipitation 2.47 2.65  
Year to date precipitation 29.66 18.99  
Snow  
Snow 0.00 in 0.00 in 0.00 in ()
Month to date snowfall T 0.0  
Since 1 June snowfall T 0.0  
Since 1 July snowfall T 0.0  
Snow Depth 0.00 in    
Sea Level Pressure  
Sea Level Pressure 29.92 in    
Wind  
Wind Speed 10 mph ()    
Max Wind Speed 26 mph    
Max Gust Speed 41 mph    
Visibility 10.0 miles    
Events      
T = Trace of Precipitation, MM = Missing Value Source: Averaged Metar Reports

Daily Weather History Graph

Daily Weather History Graph

Search for Another Location

Airport or City:

Astronomy

Aug. 27, 2019 Rise Set
Actual Time 6:44 AM CDT 8:11 PM CDT
Civil Twilight 6:14 AM CDT 8:41 PM CDT
Nautical Twilight 5:38 AM CDT 9:17 PM CDT
Astronomical Twilight 5:00 AM CDT 9:55 PM CDT
Moon 3:03 AM CDT (8/27) 6:39 PM CDT (8/27)
Length of Visible Light 14h 26m
Length of Day
13h 26m
Waning Crescent, 11% of the Moon is Illuminated
Aug 27
Waning Crescent
Aug 30
New
Sep 5
First Quarter
Sep 13
Full
Sep 21
Last Quarter

Hourly Weather History & Observations

Time (CDT) Temp. Dew Point Humidity Pressure Visibility Wind Dir Wind Speed Gust Speed Precip Events Conditions
12:56 AM 61.0 °F 55.9 °F 83% 29.86 in 10.0 mi WNW 8.1 mph - N/A   Clear
1:56 AM 60.1 °F 54.0 °F 80% 29.86 in 10.0 mi West 6.9 mph - N/A   Clear
2:56 AM 59.0 °F 53.1 °F 81% 29.86 in 10.0 mi West 5.8 mph - N/A   Clear
3:56 AM 59.0 °F 53.1 °F 81% 29.88 in 10.0 mi West 5.8 mph - N/A   Clear
4:56 AM 57.9 °F 52.0 °F 81% 29.89 in 10.0 mi West 6.9 mph - N/A   Clear
5:56 AM 57.0 °F 52.0 °F 83% 29.89 in 10.0 mi West 9.2 mph - N/A   Scattered Clouds
6:56 AM 57.0 °F 52.0 °F 83% 29.91 in 10.0 mi West 9.2 mph - N/A   Partly Cloudy
7:56 AM 59.0 °F 52.0 °F 78% 29.91 in 10.0 mi West 9.2 mph - N/A   Partly Cloudy
8:56 AM 61.0 °F 53.1 °F 75% 29.93 in 10.0 mi West 11.5 mph - N/A   Partly Cloudy
9:56 AM 64.9 °F 54.0 °F 68% 29.94 in 10.0 mi West 12.7 mph 20.7 mph N/A   Scattered Clouds
10:56 AM 66.9 °F 54.0 °F 63% 29.94 in 10.0 mi West 12.7 mph 24.2 mph N/A   Partly Cloudy
11:56 AM 69.1 °F 53.1 °F 57% 29.94 in 10.0 mi West 13.8 mph 26.5 mph N/A   Partly Cloudy
12:56 PM 71.1 °F 50.0 °F 47% 29.93 in 10.0 mi WNW 16.1 mph 27.6 mph N/A   Scattered Clouds
1:56 PM 72.0 °F 46.9 °F 41% 29.93 in 10.0 mi West 24.2 mph 36.8 mph N/A   Scattered Clouds
2:56 PM 73.0 °F 44.1 °F 35% 29.93 in 10.0 mi West 21.9 mph 36.8 mph N/A   Scattered Clouds
3:56 PM 73.0 °F 46.0 °F 38% 29.93 in 10.0 mi WNW 26.5 mph 39.1 mph N/A   Scattered Clouds
4:56 PM 73.0 °F 46.0 °F 38% 29.93 in 10.0 mi WNW 20.7 mph 35.7 mph N/A   Scattered Clouds
5:56 PM 70.0 °F 46.0 °F 42% 29.94 in 10.0 mi NW 20.7 mph 39.1 mph N/A   Mostly Cloudy
6:56 PM 70.0 °F 46.9 °F 44% 29.95 in 10.0 mi WNW 15.0 mph 29.9 mph N/A   Partly Cloudy
7:56 PM 66.0 °F 48.0 °F 52% 29.95 in 10.0 mi West 8.1 mph - N/A   Partly Cloudy
8:56 PM 63.0 °F 48.9 °F 60% 29.97 in 10.0 mi West 5.8 mph - N/A   Partly Cloudy
9:56 PM 61.0 °F 50.0 °F 67% 29.97 in 10.0 mi WSW 4.6 mph - N/A   Partly Cloudy
10:56 PM 60.1 °F 50.0 °F 69% 29.97 in 10.0 mi West 5.8 mph - N/A   Scattered Clouds
11:56 PM 59.0 °F 48.9 °F 69% 29.97 in 10.0 mi West 5.8 mph - N/A   Partly Cloudy